Location: Lane
(33.5226°N, 79.8788°W)
Time: 20:12:15
(UTC+00:00)

Explorer 11/Cluster Stage 4 - Pass Details

Date: 07 October 2022
Orbit: 466 x 1247 km, 28.8° (Epoch: 01 December)

Event Time Altitude Azimuth Distance (km) Brightness Sun altitude
Rises 20:04:19 0° 272° (W) 4,087 11.0 32.6°
Reaches altitude 10° 20:07:47 10° 261° (W) 3,038 10.7 32.0°
Maximum altitude 20:13:52 27° 207° (SSW) 1,860 9.9 30.9°
Drops below altitude 10° 20:19:10 10° 152° (SSE) 2,600 9.4 30.0°
Sets 20:21:54 0° 140° (SE) 3,404 9.8 29.5°
